Terug naar catalogus

TITAN 3C TRANSTAGE DEB

ActiefMEO
NORAD 38690·DEBRIS·🇺🇸 United States

Gelanceerd Sep 26, 1968 vanaf Cape Canaveral Space Force Station

Loading…

Volgende Passages (komende 24 uur)

TLE

VersSource: Space-Track

Epoch: Sep 14, 2026, 06:41 UTC

1 38690U 68081Q   26257.27861756 -.00000282  00000-0  00000-0 0  9996
2 38690   1.9797  25.1092 0247006 323.4818  35.2085  0.99326461 51377

Volg TITAN 3C TRANSTAGE DEB in realtime met AllMySat

Download on the App Store